Regional Weather Roundup
Issued by NWS

Home | Current Version | Previous Version | Graphics & Text | Print | Product List | Glossary On
Versions: 1 2 3 4 5 6 7 8 9 10 11 12 13 14 15 16 17 18 19 20 21 22 23 24 25 26 27 28 29 30 31 32 33 34 35 36 37 38 39 40 41 42 43 44 45 46 47 48 49 50
910
ASUS44 KLIX 181205
RWRLA
LOUISIANA WEATHER ROUNDUP
NATIONAL WEATHER SERVICE NEW ORLEANS LA
700 AM CDT THU SEP 18 2014

NOTE: "FAIR" INDICATES FEW OR NO CLOUDS BELOW 12,000 FEET WITH NO
      SIGNIFICANT WEATHER AND/OR OBSTRUCTIONS TO VISIBILITY.
      SKY/WX - SKY CONDITION AND SIGNIFICANT WEATHER.
      TMP - AIR TEMPERATURE.    DP   - DEWPOINT TEMPERATURE.
      RH  - RELATIVE HUMIDITY.  PRES - PRESSURE.
      HX  - HEAT INDEX.         WCI  - WIND CHILL INDEX.

*  THESE STATIONS ARE NOT NWS OR FAA STATIONS AND ARE NOT UNDER
   NWS QUALITY CONTROL.

LAZ040-048-061>063-065-066-069-181300-
SOUTHEAST LOUISIANA

CITY           SKY/WX    TMP DP  RH WIND       PRES   REMARKS
N.O. AUDUBON   NOT AVBL
N.O. INTL ARPT PTCLDY    76  74  93 NW3       29.92R
6HR MIN TEMP:  75; 6HR MAX TEMP:  76;

N.O. LAKEFRONT PTCLDY    80  75  84 N7        29.92R
6HR MIN TEMP:  78; 6HR MAX TEMP:  81;

N.O. DOWNTOWN* PTSUNNY   79  70  73 CALM      29.93R
6HR MIN TEMP:  79; 6HR MAX TEMP:  81;

SLIDELL        PTCLDY    71  69  93 N3        29.91R
6HR MIN TEMP:  71; 6HR MAX TEMP:  74;

BATON ROUGE    MOCLDY    73  71  93 CALM      29.92R FOG
6HR MIN TEMP:  72; 6HR MAX TEMP:  75;

BOOTHVILLE     MOCLDY    80  76  87 CALM      29.92R
6HR MIN TEMP:  78; 6HR MAX TEMP:  81;

BELLE CHASSE   MOCLDY    72  69  90 CALM      29.91R FOG
6HR MIN TEMP:  72; 6HR MAX TEMP:  75;

BOGALUSA*      FAIR      73  70  90 CALM      29.94R FOG
6HR MIN TEMP:  72; 6HR MAX TEMP:  75;

GALLIANO*      NOT AVBL
NEW ROADS*     FOG       72  71  98 CALM      29.92S VSB 3/4
6HR MIN TEMP:  71; 6HR MAX TEMP:  74;

GONZALES*      FAIR      72  72 100 CALM      29.92R FOG
6HR MIN TEMP:  72; 6HR MAX TEMP:  74;

HAMMOND*       MOCLDY    72  70  94 CALM      29.94R FOG
HOUMA*         PTCLDY   N/A N/A N/A N5        29.92R FOG
PORT FOURCHON* CLOUDY    79  72  78 W6        29.95R

$$

LAZ041-044-053-054-181300-
SOUTHWEST LOUISIANA

CITY           SKY/WX    TMP DP  RH WIND       PRES   REMARKS
LAKE CHARLES   LGT RAIN  75  74  96 NE3       29.90S FOG
6HR MIN TEMP:  74; 6HR MAX TEMP:  75; 6HR PCP:  0.01;

LAFAYETTE      CLOUDY    76  75  97 CALM      29.92R
6HR MIN TEMP:  75; 6HR MAX TEMP:  76;

PATTERSON      MOCLDY    73  73 100 CALM      29.95R
6HR MIN TEMP:  73; 6HR MAX TEMP:  75;

SALT POINT       N/A     79  76  90 CALM      29.92R
6HR MIN TEMP:  78; 6HR MAX TEMP:  79;

NEW IBERIA     CLOUDY    75  74  96 CALM      29.92S
6HR MIN TEMP:  74; 6HR MAX TEMP:  76;

CHENAULT AIRPK CLEAR     75  75 100 CALM      29.91S FOG

$$

LAZ027-028-181300-
CENTRAL LOUISIANA

CITY           SKY/WX    TMP DP  RH WIND       PRES   REMARKS
FORT POLK      CLOUDY    73  72  96 CALM      29.92R
6HR MIN TEMP:  72; 6HR MAX TEMP:  74; 6HR PCP:  0.01;

ALEXANDRIA INT CLOUDY    73  72  96 CALM      29.90R
6HR MIN TEMP:  72; 6HR MAX TEMP:  74;

ALEXANDRIA     CLOUDY    73  70  90 CALM      29.92R
6HR MIN TEMP:  71; 6HR MAX TEMP:  73;


$$

LAZ001-002-181300-
NORTHWEST LOUISIANA

CITY           SKY/WX    TMP DP  RH WIND       PRES   REMARKS
SHREVEPORT     CLOUDY    73  71  93 CALM      29.90R
6HR MIN TEMP:  73; 6HR MAX TEMP:  77;

BARKSDALE AFB  CLOUDY    74  72  92 S2        29.90R
6HR MIN TEMP:  71; 6HR MAX TEMP:  76;

DTN SHREVEPORT CLOUDY    75  71  87 S5        29.90R
6HR MIN TEMP:  73; 6HR MAX TEMP:  78;


$$

LAZ014-016-181300-
NORTHEAST LOUISIANA

CITY           SKY/WX    TMP DP  RH WIND       PRES   REMARKS
MONROE         MOCLDY    71  70  96 CALM      29.92R
6HR MIN TEMP:  70; 6HR MAX TEMP:  74;

TALLULAH       PTCLDY    72  70  93 CALM      29.93R
6HR MIN TEMP:  69; 6HR MAX TEMP:  73;


$$




USA.gov is the U.S. government's official web portal to all federal, state and local government web resources and services.